Time,TemperatureF,DewpointF,PressureIn,WindDirection,WindDirectionDegrees,WindSpeedMPH,WindSpeedGustMPH,Humidity,HourlyPrecipIn,Conditions,Clouds,dailyrainin,SoftwareType,DateUTC
2013-02-27 00:02:00,26.0,25.0,-100.00,NW,320,15.0,17.0,92,0.00,,,0.00,,2013-02-27 06:02:00,
2013-02-27 00:11:00,25.0,23.0,-100.00,NW,315,12.0,19.0,93,0.00,,,0.00,,2013-02-27 06:11:00,
2013-02-27 00:21:00,24.0,23.0,-100.00,NW,310,11.0,16.0,94,0.00,,,0.00,,2013-02-27 06:21:00,
2013-02-27 00:32:00,24.0,23.0,-100.00,NW,305,14.0,17.0,95,0.00,,,0.00,,2013-02-27 06:32:00,
2013-02-27 00:41:00,23.0,23.0,-100.00,NW,305,12.0,16.0,96,0.00,,,0.00,,2013-02-27 06:41:00,
2013-02-27 00:51:00,23.0,21.0,-100.00,NW,310,14.0,17.0,96,0.00,,,0.00,,2013-02-27 06:51:00,
2013-02-27 01:01:00,22.0,21.0,-100.00,NW,315,12.0,16.0,96,0.00,,,0.00,,2013-02-27 07:01:00,
2013-02-27 01:12:00,22.0,21.0,-100.00,NW,315,12.0,16.0,96,0.00,,,0.00,,2013-02-27 07:12:00,
2013-02-27 01:21:00,22.0,21.0,-100.00,NW,320,13.0,16.0,97,0.00,,,0.00,,2013-02-27 07:21:00,
2013-02-27 01:31:00,22.0,21.0,-100.00,NW,315,14.0,17.0,97,0.00,,,0.00,,2013-02-27 07:31:00,
2013-02-27 01:41:00,22.0,21.0,-100.00,NW,320,12.0,17.0,97,0.00,,,0.00,,2013-02-27 07:41:00,
2013-02-27 01:51:00,22.0,21.0,-100.00,NW,310,11.0,16.0,97,0.00,,,0.00,,2013-02-27 07:51:00,
2013-02-27 02:01:00,22.0,21.0,-100.00,NW,310,12.0,17.0,96,0.00,,,0.00,,2013-02-27 08:01:00,
2013-02-27 02:11:00,22.0,21.0,-100.00,NW,310,12.0,19.0,97,0.00,,,0.00,,2013-02-27 08:11:00,
2013-02-27 02:21:00,22.0,21.0,-100.00,NW,315,11.0,16.0,96,0.00,,,0.00,,2013-02-27 08:21:00,
2013-02-27 02:32:00,22.0,21.0,-100.00,NW,315,12.0,15.0,96,0.00,,,0.00,,2013-02-27 08:32:00,
2013-02-27 02:41:00,22.0,21.0,-100.00,NW,315,11.0,15.0,96,0.00,,,0.00,,2013-02-27 08:41:00,
2013-02-27 02:52:00,22.0,21.0,-100.00,NW,315,10.0,15.0,96,0.00,,,0.00,,2013-02-27 08:52:00,
2013-02-27 03:02:00,22.0,21.0,-100.00,NW,315,9.0,13.0,95,0.00,,,0.00,,2013-02-27 09:02:00,
2013-02-27 03:11:00,22.0,21.0,-100.00,NW,320,10.0,13.0,95,0.00,,,0.00,,2013-02-27 09:11:00,
2013-02-27 03:21:00,22.0,21.0,-100.00,NW,315,10.0,14.0,94,0.00,,,0.00,,2013-02-27 09:21:00,
2013-02-27 03:32:00,22.0,21.0,-100.00,NW,305,11.0,14.0,95,0.00,,,0.00,,2013-02-27 09:32:00,
2013-02-27 03:41:00,21.0,19.0,-100.00,NW,315,12.0,15.0,95,0.00,,,0.00,,2013-02-27 09:41:00,
2013-02-27 03:51:00,21.0,19.0,-100.00,NW,315,13.0,16.0,95,0.00,,,0.00,,2013-02-27 09:51:00,
2013-02-27 04:01:00,20.0,19.0,-100.00,NW,315,12.0,17.0,95,0.00,,,0.00,,2013-02-27 10:01:00,
2013-02-27 04:12:00,20.0,19.0,-100.00,NW,315,13.0,17.0,95,0.00,,,0.00,,2013-02-27 10:12:00,
2013-02-27 04:21:00,20.0,19.0,-100.00,NW,315,13.0,17.0,94,0.00,,,0.00,,2013-02-27 10:21:00,
2013-02-27 04:32:00,21.0,19.0,-100.00,NW,320,13.0,17.0,94,0.00,,,0.00,,2013-02-27 10:32:00,
2013-02-27 04:42:00,21.0,19.0,-100.00,NW,310,12.0,17.0,94,0.00,,,0.00,,2013-02-27 10:42:00,
2013-02-27 04:52:00,21.0,19.0,-100.00,NW,310,13.0,17.0,94,0.00,,,0.00,,2013-02-27 10:52:00,
2013-02-27 05:02:00,21.0,19.0,-100.00,NW,320,12.0,17.0,93,0.00,,,0.00,,2013-02-27 11:02:00,
2013-02-27 05:12:00,22.0,19.0,-100.00,NW,310,14.0,18.0,92,0.00,,,0.00,,2013-02-27 11:12:00,
2013-02-27 05:22:00,22.0,19.0,-100.00,NW,315,15.0,19.0,92,0.00,,,0.00,,2013-02-27 11:22:00,
2013-02-27 05:32:00,22.0,19.0,-100.00,NW,320,13.0,18.0,92,0.00,,,0.00,,2013-02-27 11:32:00,
2013-02-27 05:41:00,22.0,19.0,-100.00,NW,320,12.0,17.0,92,0.00,,,0.00,,2013-02-27 11:41:00,
2013-02-27 05:52:00,22.0,19.0,-100.00,NW,325,12.0,17.0,92,0.00,,,0.00,,2013-02-27 11:52:00,
2013-02-27 06:02:00,23.0,21.0,-100.00,NW,325,14.0,20.0,92,0.00,,,0.00,,2013-02-27 12:02:00,
2013-02-27 06:12:00,23.0,21.0,-100.00,NW,325,16.0,20.0,92,0.00,,,0.00,,2013-02-27 12:12:00,
2013-02-27 06:22:00,23.0,21.0,-100.00,NW,325,14.0,20.0,92,0.00,,,0.00,,2013-02-27 12:22:00,
2013-02-27 06:32:00,24.0,21.0,-100.00,NW,320,12.0,17.0,93,0.00,,,0.00,,2013-02-27 12:32:00,
2013-02-27 06:42:00,24.0,21.0,-100.00,NW,315,14.0,19.0,92,0.00,,,0.00,,2013-02-27 12:42:00,
2013-02-27 06:52:00,24.0,21.0,-100.00,NW,325,14.0,20.0,92,0.00,,,0.00,,2013-02-27 12:52:00,
2013-02-27 07:02:00,23.0,21.0,-100.00,NW,320,16.0,19.0,94,0.00,,,0.00,,2013-02-27 13:02:00,
2013-02-27 07:11:00,23.0,21.0,-100.00,NW,325,14.0,19.0,93,0.00,,,0.00,,2013-02-27 13:11:00,
2013-02-27 07:22:00,23.0,21.0,-100.00,NW,325,15.0,19.0,92,0.00,,,0.00,,2013-02-27 13:22:00,
2013-02-27 07:32:00,23.0,21.0,-100.00,NW,325,14.0,18.0,93,0.00,,,0.00,,2013-02-27 13:32:00,
2013-02-27 07:42:00,22.0,21.0,-100.00,NW,320,13.0,17.0,93,0.00,,,0.00,,2013-02-27 13:42:00,
2013-02-27 07:52:00,22.0,21.0,-100.00,NW,310,11.0,17.0,94,0.00,,,0.00,,2013-02-27 13:52:00,
2013-02-27 08:02:00,22.0,21.0,-100.00,NW,310,12.0,16.0,94,0.00,,,0.00,,2013-02-27 14:02:00,
2013-02-27 08:12:00,22.0,21.0,-100.00,NW,305,13.0,17.0,93,0.00,,,0.00,,2013-02-27 14:12:00,
2013-02-27 08:21:00,22.0,21.0,-100.00,NW,310,14.0,19.0,93,0.00,,,0.00,,2013-02-27 14:21:00,
2013-02-27 08:32:00,22.0,21.0,-100.00,NW,315,15.0,22.0,93,0.00,,,0.00,,2013-02-27 14:32:00,
2013-02-27 08:42:00,22.0,19.0,-100.00,NW,315,15.0,21.0,92,0.00,,,0.00,,2013-02-27 14:42:00,
2013-02-27 08:52:00,22.0,19.0,-100.00,NW,315,15.0,21.0,92,0.00,,,0.00,,2013-02-27 14:52:00,
2013-02-27 09:02:00,22.0,19.0,-100.00,NW,320,15.0,17.0,93,0.00,,,0.00,,2013-02-27 15:02:00,
2013-02-27 09:12:00,22.0,19.0,-100.00,NW,310,16.0,20.0,93,0.00,,,0.00,,2013-02-27 15:12:00,
2013-02-27 09:22:00,22.0,21.0,-100.00,NW,305,12.0,17.0,92,0.00,,,0.00,,2013-02-27 15:22:00,
2013-02-27 09:32:00,23.0,21.0,-100.00,NW,305,13.0,17.0,92,0.00,,,0.00,,2013-02-27 15:32:00,
2013-02-27 09:42:00,23.0,21.0,-100.00,NW,310,14.0,17.0,92,0.00,,,0.00,,2013-02-27 15:42:00,
2013-02-27 09:52:00,23.0,21.0,-100.00,NW,325,16.0,21.0,91,0.00,,,0.00,,2013-02-27 15:52:00,
2013-02-27 10:01:00,24.0,21.0,-100.00,NW,320,17.0,22.0,90,0.00,,,0.00,,2013-02-27 16:01:00,
2013-02-27 10:11:00,24.0,21.0,-100.00,NNW,330,17.0,24.0,90,0.00,,,0.00,,2013-02-27 16:11:00,
2013-02-27 10:22:00,25.0,23.0,-100.00,NNW,330,17.0,24.0,89,0.00,,,0.00,,2013-02-27 16:22:00,
2013-02-27 10:32:00,26.0,23.0,-100.00,NW,315,16.0,23.0,90,0.00,,,0.00,,2013-02-27 16:32:00,
2013-02-27 10:42:00,26.0,23.0,-100.00,NW,315,16.0,24.0,89,0.00,,,0.00,,2013-02-27 16:42:00,
2013-02-27 10:52:00,26.0,23.0,-100.00,NW,325,16.0,22.0,89,0.00,,,0.00,,2013-02-27 16:52:00,
2013-02-27 11:02:00,26.0,23.0,-100.00,NW,325,17.0,22.0,89,0.00,,,0.00,,2013-02-27 17:02:00,
2013-02-27 11:11:00,27.0,23.0,-100.00,NW,325,16.0,24.0,89,0.00,,,0.00,,2013-02-27 17:11:00,
2013-02-27 11:21:00,27.0,25.0,-100.00,NW,320,16.0,24.0,88,0.00,,,0.00,,2013-02-27 17:21:00,
2013-02-27 11:32:00,26.0,23.0,-100.00,NW,315,14.0,22.0,88,0.00,,,0.00,,2013-02-27 17:32:00,
2013-02-27 11:41:00,26.0,23.0,-100.00,NW,320,16.0,22.0,86,0.00,,,0.00,,2013-02-27 17:41:00,
2013-02-27 11:52:00,27.0,23.0,-100.00,NW,320,14.0,21.0,86,0.00,,,0.00,,2013-02-27 17:52:00,
2013-02-27 12:01:00,27.0,25.0,-100.00,NW,325,16.0,22.0,86,0.00,,,0.00,,2013-02-27 18:01:00,
2013-02-27 12:11:00,28.0,25.0,-100.00,NNW,330,16.0,22.0,87,0.00,,,0.00,,2013-02-27 18:11:00,
2013-02-27 12:22:00,28.0,25.0,-100.00,NNW,335,21.0,26.0,87,0.00,,,0.00,,2013-02-27 18:22:00,
2013-02-27 12:32:00,29.0,25.0,-100.00,NNW,330,20.0,28.0,85,0.00,,,0.00,,2013-02-27 18:32:00,
2013-02-27 12:42:00,29.0,25.0,-100.00,NW,320,20.0,26.0,83,0.00,,,0.00,,2013-02-27 18:42:00,
2013-02-27 12:51:00,30.0,25.0,-100.00,NNW,335,16.0,24.0,81,0.00,,,0.00,,2013-02-27 18:51:00,
2013-02-27 13:01:00,30.0,25.0,-100.00,NW,325,12.0,21.0,82,0.00,,,0.00,,2013-02-27 19:01:00,
2013-02-27 13:11:00,31.0,25.0,-100.00,NNW,340,17.0,22.0,80,0.00,,,0.00,,2013-02-27 19:11:00,
2013-02-27 13:21:00,31.0,25.0,-100.00,NNW,330,16.0,19.0,78,0.00,,,0.00,,2013-02-27 19:21:00,
2013-02-27 13:32:00,32.0,25.0,-100.00,NW,325,17.0,25.0,77,0.00,,,0.00,,2013-02-27 19:32:00,
2013-02-27 13:42:00,31.0,25.0,-100.00,NW,320,16.0,20.0,78,0.00,,,0.00,,2013-02-27 19:42:00,
2013-02-27 13:52:00,31.0,25.0,-100.00,NW,325,17.0,24.0,77,0.00,,,0.00,,2013-02-27 19:52:00,
2013-02-27 14:01:00,31.0,25.0,-100.00,NNW,330,19.0,25.0,75,0.00,,,0.00,,2013-02-27 20:01:00,
2013-02-27 14:11:00,31.0,23.0,-100.00,NW,325,23.0,28.0,73,0.00,,,0.00,,2013-02-27 20:11:00,
2013-02-27 14:21:00,30.0,25.0,-100.00,NW,305,15.0,27.0,79,0.00,,,0.00,,2013-02-27 20:21:00,
2013-02-27 14:32:00,30.0,25.0,-100.00,NW,315,14.0,22.0,78,0.00,,,0.00,,2013-02-27 20:32:00,
2013-02-27 14:42:00,30.0,25.0,-100.00,NW,305,13.0,22.0,77,0.00,,,0.00,,2013-02-27 20:42:00,
2013-02-27 14:52:00,30.0,23.0,-100.00,NW,315,14.0,20.0,78,0.00,,,0.00,,2013-02-27 20:52:00,
2013-02-27 15:02:00,30.0,23.0,-100.00,NW,305,14.0,19.0,78,0.00,,,0.00,,2013-02-27 21:02:00,
2013-02-27 15:11:00,30.0,23.0,-100.00,NW,310,16.0,21.0,77,0.00,,,0.00,,2013-02-27 21:11:00,
2013-02-27 15:21:00,30.0,25.0,-100.00,NW,315,16.0,22.0,78,0.00,,,0.00,,2013-02-27 21:21:00,
2013-02-27 15:31:00,30.0,25.0,-100.00,NW,310,17.0,22.0,78,0.00,,,0.00,,2013-02-27 21:31:00,
2013-02-27 15:42:00,30.0,23.0,-100.00,NW,310,18.0,24.0,78,0.00,,,0.00,,2013-02-27 21:42:00,
2013-02-27 15:51:00,30.0,25.0,-100.00,NW,315,16.0,22.0,79,0.00,,,0.00,,2013-02-27 21:51:00,
2013-02-27 16:01:00,30.0,25.0,-100.00,NW,315,19.0,26.0,78,0.00,,,0.00,,2013-02-27 22:01:00,
2013-02-27 16:11:00,30.0,25.0,-100.00,NW,315,17.0,22.0,79,0.00,,,0.00,,2013-02-27 22:11:00,
2013-02-27 16:21:00,29.0,23.0,-100.00,NW,315,17.0,22.0,79,0.00,,,0.00,,2013-02-27 22:21:00,
2013-02-27 16:31:00,29.0,23.0,-100.00,NW,315,18.0,26.0,77,0.00,,,0.00,,2013-02-27 22:31:00,
2013-02-27 16:41:00,29.0,23.0,-100.00,NW,325,20.0,25.0,75,0.00,,,0.00,,2013-02-27 22:41:00,
2013-02-27 16:51:00,29.0,23.0,-100.00,NW,315,21.0,28.0,76,0.00,,,0.00,,2013-02-27 22:51:00,
2013-02-27 17:01:00,29.0,21.0,-100.00,NW,325,17.0,26.0,76,0.00,,,0.00,,2013-02-27 23:01:00,
2013-02-27 17:11:00,28.0,21.0,-100.00,NW,320,17.0,25.0,77,0.00,,,0.00,,2013-02-27 23:11:00,
2013-02-27 17:21:00,28.0,23.0,-100.00,NW,310,19.0,23.0,81,0.00,,,0.00,,2013-02-27 23:21:00,
2013-02-27 17:32:00,27.0,23.0,-100.00,NW,315,18.0,24.0,82,0.00,,,0.00,,2013-02-27 23:32:00,
2013-02-27 17:42:00,27.0,23.0,-100.00,NW,320,17.0,26.0,84,0.00,,,0.00,,2013-02-27 23:42:00,
2013-02-27 17:52:00,27.0,23.0,-100.00,NW,315,20.0,27.0,86,0.00,,,0.00,,2013-02-27 23:52:00,
2013-02-27 18:01:00,27.0,23.0,-100.00,NW,310,19.0,26.0,87,0.00,,,0.00,,2013-02-28 00:01:00,
2013-02-27 18:11:00,26.0,23.0,-100.00,NW,320,21.0,26.0,89,0.00,,,0.00,,2013-02-28 00:11:00,
2013-02-27 18:21:00,26.0,23.0,-100.00,NW,310,21.0,26.0,89,0.00,,,0.00,,2013-02-28 00:21:00,
2013-02-27 18:32:00,25.0,23.0,-100.00,NW,315,19.0,32.0,91,0.00,,,0.00,,2013-02-28 00:32:00,
2013-02-27 18:42:00,25.0,23.0,-100.00,NW,315,15.0,24.0,92,0.00,,,0.00,,2013-02-28 00:42:00,
2013-02-27 18:51:00,25.0,23.0,-100.00,NW,315,20.0,28.0,93,0.00,,,0.00,,2013-02-28 00:51:00,
2013-02-27 19:01:00,24.0,23.0,-100.00,NW,310,17.0,27.0,94,0.00,,,0.00,,2013-02-28 01:01:00,
2013-02-27 19:11:00,24.0,23.0,-100.00,NW,310,17.0,27.0,94,0.00,,,0.00,,2013-02-28 01:11:00,
2013-02-27 19:21:00,23.0,21.0,-100.00,NW,315,18.0,26.0,94,0.00,,,0.00,,2013-02-28 01:21:00,
2013-02-27 19:32:00,22.0,21.0,-100.00,NW,310,17.0,23.0,95,0.00,,,0.00,,2013-02-28 01:32:00,
2013-02-27 19:41:00,22.0,21.0,-100.00,NW,310,21.0,26.0,95,0.00,,,0.00,,2013-02-28 01:41:00,
2013-02-27 19:51:00,22.0,21.0,-100.00,NW,320,19.0,29.0,96,0.00,,,0.00,,2013-02-28 01:51:00,
2013-02-27 20:01:00,22.0,21.0,-100.00,NW,315,20.0,27.0,96,0.00,,,0.00,,2013-02-28 02:01:00,
2013-02-27 20:11:00,22.0,21.0,-100.00,NW,310,19.0,27.0,96,0.00,,,0.00,,2013-02-28 02:11:00,
2013-02-27 20:22:00,21.0,21.0,-100.00,NW,310,19.0,26.0,95,0.00,,,0.00,,2013-02-28 02:22:00,
2013-02-27 20:31:00,21.0,19.0,-100.00,NW,315,19.0,26.0,95,0.00,,,0.00,,2013-02-28 02:31:00,
2013-02-27 20:41:00,21.0,19.0,-100.00,NW,315,19.0,26.0,95,0.00,,,0.00,,2013-02-28 02:41:00,
2013-02-27 20:51:00,21.0,19.0,-100.00,NW,315,19.0,26.0,95,0.00,,,0.00,,2013-02-28 02:51:00,
2013-02-27 21:01:00,21.0,19.0,-100.00,NW,315,18.0,23.0,94,0.00,,,0.00,,2013-02-28 03:01:00,
2013-02-27 21:11:00,21.0,19.0,-100.00,NW,315,19.0,25.0,94,0.00,,,0.00,,2013-02-28 03:11:00,
2013-02-27 21:21:00,21.0,19.0,-100.00,NW,325,17.0,26.0,94,0.00,,,0.00,,2013-02-28 03:21:00,
2013-02-27 21:31:00,21.0,19.0,-100.00,NW,325,17.0,22.0,93,0.00,,,0.00,,2013-02-28 03:31:00,
2013-02-27 21:41:00,21.0,19.0,-100.00,NW,325,16.0,21.0,94,0.00,,,0.00,,2013-02-28 03:41:00,
2013-02-27 21:51:00,20.0,19.0,-100.00,NNW,330,16.0,22.0,94,0.00,,,0.00,,2013-02-28 03:51:00,
2013-02-27 22:01:00,21.0,19.0,-100.00,NW,315,16.0,24.0,94,0.00,,,0.00,,2013-02-28 04:01:00,
2013-02-27 22:11:00,20.0,19.0,-100.00,NW,315,16.0,19.0,93,0.00,,,0.00,,2013-02-28 04:11:00,
2013-02-27 22:21:00,20.0,19.0,-100.00,NW,320,15.0,20.0,94,0.00,,,0.00,,2013-02-28 04:21:00,
2013-02-27 22:32:00,20.0,19.0,-100.00,NW,320,15.0,19.0,93,0.00,,,0.00,,2013-02-28 04:32:00,
2013-02-27 22:42:00,20.0,19.0,-100.00,NW,320,14.0,18.0,93,0.00,,,0.00,,2013-02-28 04:42:00,
2013-02-27 22:51:00,20.0,19.0,-100.00,NW,315,14.0,21.0,93,0.00,,,0.00,,2013-02-28 04:51:00,
2013-02-27 23:01:00,20.0,19.0,-100.00,NW,315,14.0,19.0,94,0.00,,,0.00,,2013-02-28 05:01:00,
2013-02-27 23:11:00,20.0,19.0,-100.00,NW,310,14.0,19.0,94,0.00,,,0.00,,2013-02-28 05:11:00,
2013-02-27 23:22:00,20.0,19.0,-100.00,NW,320,16.0,20.0,95,0.00,,,0.00,,2013-02-28 05:22:00,
2013-02-27 23:31:00,20.0,19.0,-100.00,NW,315,12.0,19.0,95,0.00,,,0.00,,2013-02-28 05:31:00,
2013-02-27 23:42:00,20.0,19.0,-100.00,NNW,330,11.0,17.0,95,0.00,,,0.00,,2013-02-28 05:42:00,
2013-02-27 23:52:00,20.0,19.0,-100.00,NW,325,9.0,16.0,95,0.00,,,0.00,,2013-02-28 05:52:00,